sat.trackr.live / text

‹ back to catalog

STARLINK-34205

NORAD 64741 · 2025-144T

PAYLOAD ACTIVE UNKNOWN

§ Identity

Operator
Country
US
Launch date
2025-07-02
Launch site
AFETR
Launch vehicle
Mass (kg)
RCS (m²)

Purposes: comms

External: N2YO · Heavens-Above · Gunter

§ Orbital elements

Epoch: 2026-09-20T13:06:57.767616Z

Period
93.85 min
Inclination
53.1632°
Eccentricity
0.0001337
Mean motion
15.34405055 rev/d
Perigee alt
461.8 km
Apogee alt
463.6 km
Semi-major
6,840.8 km
B*
5.7413e-4
RAAN
353.2367°
Arg perigee
95.3952°
Mean anomaly
264.7203°
Rev number
6,958

§ Raw data

STARLINK-342051 64741U 25144T   26263.54650194  .00019074  00000+0  57413-3 0  99942 64741  53.1632 353.2367 0001337  95.3952 264.7203 15.34405055 69584

JSON: /api/v1/satellites/64741 · /tle

For live sub-satellite position, see the globe view (requires WebGL).

§ Visibility from observer

Set your observer location to see the next 7 days of passes ≥ 10°. The values pass through the URL so the page stays shareable.

No JS? Fill the form by hand. The geolocation button needs JavaScript.